STARLINK-36835

Last updated on Sun Mar 22 2026 00:02:05 GMT+0000 (Coordinated Universal Time)

1 67863U 26034P 26080.48068791 .00155978 00000+0 77788-3 0 9998 2 67863 53.1588 152.1497 0001169 92.6396 267.4761 15.80921271 5805
UTC large
Height (km)
Speed (km/s)
/
Latitude / Longitude
Inclination (degrees)
Orbital Period (minutes)
Azimuth
Elevation
Range (km)
Doppler Factor

Next 0 passes for location: London (51.5072 / 0.1276)

Sorry there are no passes over London.